Time,TemperatureF,DewpointF,PressureIn,WindDirection,WindDirectionDegrees,WindSpeedMPH,WindSpeedGustMPH,Humidity,HourlyPrecipIn,Conditions,Clouds,dailyrainin,SoftwareType,DateUTC
2013-05-02 00:01:00,35.0,8.0,30.57,North,0,0.0,-999.0,32,-99.99,,,-99.99,,2013-05-02 06:01:00,
2013-05-02 00:12:00,35.0,8.0,30.56,East,101,2.0,-999.0,32,-99.99,,,-99.99,,2013-05-02 06:12:00,
2013-05-02 00:21:00,36.0,8.0,30.55,ESE,115,4.0,-999.0,30,-99.99,,,-99.99,,2013-05-02 06:21:00,
2013-05-02 00:32:00,37.0,8.0,30.57,ESE,105,4.0,-999.0,30,-99.99,,,-99.99,,2013-05-02 06:32:00,
2013-05-02 00:42:00,37.0,8.0,30.57,ESE,105,4.0,-999.0,30,-99.99,,,-99.99,,2013-05-02 06:42:00,
2013-05-02 00:52:00,36.0,9.0,30.55,SSE,160,1.0,-999.0,31,-99.99,,,-99.99,,2013-05-02 06:52:00,
2013-05-02 01:02:00,35.0,9.0,30.58,South,173,4.0,-999.0,32,-99.99,,,-99.99,,2013-05-02 07:02:00,
2013-05-02 01:11:00,34.0,10.0,30.57,South,189,3.0,-999.0,37,-99.99,,,-99.99,,2013-05-02 07:11:00,
2013-05-02 01:21:00,32.0,11.0,30.57,WSW,241,3.0,-999.0,41,-99.99,,,-99.99,,2013-05-02 07:21:00,
2013-05-02 01:32:00,31.0,11.0,30.56,SW,226,4.0,-999.0,41,-99.99,,,-99.99,,2013-05-02 07:32:00,
2013-05-02 01:42:00,31.0,11.0,30.56,SW,226,4.0,-999.0,41,-99.99,,,-99.99,,2013-05-02 07:42:00,
2013-05-02 01:52:00,31.0,10.0,30.57,SW,220,4.0,-999.0,40,-99.99,,,-99.99,,2013-05-02 07:52:00,
2013-05-02 02:02:00,31.0,10.0,30.55,WSW,237,6.0,-999.0,41,-99.99,,,-99.99,,2013-05-02 08:02:00,
2013-05-02 02:11:00,30.0,10.0,30.56,SW,235,6.0,-999.0,41,-99.99,,,-99.99,,2013-05-02 08:11:00,
2013-05-02 02:22:00,31.0,9.0,30.57,SW,235,6.0,-999.0,40,-99.99,,,-99.99,,2013-05-02 08:22:00,
2013-05-02 02:32:00,31.0,9.0,30.56,WSW,242,6.0,-999.0,40,-99.99,,,-99.99,,2013-05-02 08:32:00,
2013-05-02 02:42:00,31.0,9.0,30.55,WSW,246,6.0,-999.0,39,-99.99,,,-99.99,,2013-05-02 08:42:00,
2013-05-02 02:52:00,31.0,9.0,30.55,WSW,237,7.0,-999.0,40,-99.99,,,-99.99,,2013-05-02 08:52:00,
2013-05-02 03:02:00,30.0,9.0,30.54,WSW,237,7.0,-999.0,40,-99.99,,,-99.99,,2013-05-02 09:02:00,
2013-05-02 03:12:00,31.0,9.0,30.57,SW,236,7.0,-999.0,40,-99.99,,,-99.99,,2013-05-02 09:12:00,
2013-05-02 03:21:00,30.0,10.0,30.56,SW,230,6.0,-999.0,42,-99.99,,,-99.99,,2013-05-02 09:21:00,
2013-05-02 03:32:00,30.0,10.0,30.55,SW,234,8.0,-999.0,42,-99.99,,,-99.99,,2013-05-02 09:32:00,
2013-05-02 03:42:00,29.0,10.0,30.56,SW,232,8.0,-999.0,44,-99.99,,,-99.99,,2013-05-02 09:42:00,
2013-05-02 03:52:00,29.0,11.0,30.58,SW,231,6.0,-999.0,45,-99.99,,,-99.99,,2013-05-02 09:52:00,
2013-05-02 04:03:00,29.0,11.0,30.56,SW,228,7.0,-999.0,47,-99.99,,,-99.99,,2013-05-02 10:03:00,
2013-05-02 04:12:00,28.0,11.0,30.58,SW,232,8.0,-999.0,47,-99.99,,,-99.99,,2013-05-02 10:12:00,
2013-05-02 04:22:00,28.0,11.0,30.58,SW,229,8.0,-999.0,49,-99.99,,,-99.99,,2013-05-02 10:22:00,
2013-05-02 04:33:00,28.0,12.0,30.57,SW,227,10.0,-999.0,50,-99.99,,,-99.99,,2013-05-02 10:33:00,
2013-05-02 04:42:00,28.0,13.0,30.57,SW,231,11.0,-999.0,52,-99.99,,,-99.99,,2013-05-02 10:42:00,
2013-05-02 04:52:00,27.0,13.0,30.58,WSW,237,10.0,-999.0,54,-99.99,,,-99.99,,2013-05-02 10:52:00,
2013-05-02 05:02:00,27.0,14.0,30.58,WSW,239,9.0,-999.0,57,-99.99,,,-99.99,,2013-05-02 11:02:00,
2013-05-02 05:12:00,27.0,14.0,30.57,WSW,241,9.0,-999.0,58,-99.99,,,-99.99,,2013-05-02 11:12:00,
2013-05-02 05:22:00,27.0,14.0,30.58,WSW,258,8.0,-999.0,59,-99.99,,,-99.99,,2013-05-02 11:22:00,
2013-05-02 05:32:00,27.0,14.0,30.58,WSW,254,9.0,-999.0,59,-99.99,,,-99.99,,2013-05-02 11:32:00,
2013-05-02 05:42:00,26.0,14.0,30.60,WSW,250,8.0,-999.0,59,-99.99,,,-99.99,,2013-05-02 11:42:00,
2013-05-02 05:52:00,26.0,14.0,30.58,WSW,246,6.0,-999.0,60,-99.99,,,-99.99,,2013-05-02 11:52:00,
2013-05-02 06:01:00,25.0,14.0,30.57,WSW,251,6.0,-999.0,61,-99.99,,,-99.99,,2013-05-02 12:01:00,
2013-05-02 06:11:00,25.0,14.0,30.60,WSW,255,7.0,-999.0,61,-99.99,,,-99.99,,2013-05-02 12:11:00,
2013-05-02 06:21:00,26.0,14.0,30.61,WSW,245,9.0,-999.0,60,-99.99,,,-99.99,,2013-05-02 12:21:00,
2013-05-02 06:32:00,27.0,14.0,30.61,WSW,237,8.0,-999.0,59,-99.99,,,-99.99,,2013-05-02 12:32:00,
2013-05-02 06:42:00,27.0,14.0,30.61,WSW,237,8.0,-999.0,59,-99.99,,,-99.99,,2013-05-02 12:42:00,
2013-05-02 06:52:00,26.0,14.0,30.60,SW,236,9.0,-999.0,60,-99.99,,,-99.99,,2013-05-02 12:52:00,
2013-05-02 07:01:00,27.0,14.0,30.60,SW,228,9.0,-999.0,59,-99.99,,,-99.99,,2013-05-02 13:01:00,
2013-05-02 07:11:00,27.0,15.0,30.61,SW,223,9.0,-999.0,61,-99.99,,,-99.99,,2013-05-02 13:11:00,
2013-05-02 07:21:00,29.0,16.0,30.60,SW,222,9.0,-999.0,59,-99.99,,,-99.99,,2013-05-02 13:21:00,
2013-05-02 07:32:00,30.0,16.0,30.61,SW,228,9.0,-999.0,56,-99.99,,,-99.99,,2013-05-02 13:32:00,
2013-05-02 07:42:00,31.0,17.0,30.62,SW,231,11.0,-999.0,56,-99.99,,,-99.99,,2013-05-02 13:42:00,
2013-05-02 07:52:00,32.0,18.0,30.64,WSW,237,10.0,-999.0,55,-99.99,,,-99.99,,2013-05-02 13:52:00,
2013-05-02 08:02:00,33.0,16.0,30.62,WSW,244,10.0,-999.0,51,-99.99,,,-99.99,,2013-05-02 14:02:00,
2013-05-02 08:11:00,33.0,16.0,30.63,WSW,243,11.0,-999.0,50,-99.99,,,-99.99,,2013-05-02 14:11:00,
2013-05-02 08:22:00,34.0,17.0,30.62,WSW,248,9.0,-999.0,50,-99.99,,,-99.99,,2013-05-02 14:22:00,
2013-05-02 08:32:00,35.0,17.0,30.62,WSW,248,9.0,-999.0,48,-99.99,,,-99.99,,2013-05-02 14:32:00,
2013-05-02 08:42:00,36.0,18.0,30.63,WSW,245,10.0,-999.0,46,-99.99,,,-99.99,,2013-05-02 14:42:00,
2013-05-02 08:52:00,37.0,17.0,30.63,WSW,243,11.0,-999.0,44,-99.99,,,-99.99,,2013-05-02 14:52:00,
2013-05-02 09:02:00,39.0,16.0,30.62,WSW,245,11.0,-999.0,40,-99.99,,,-99.99,,2013-05-02 15:02:00,
2013-05-02 09:12:00,38.0,16.0,30.61,WSW,245,11.0,-999.0,40,-99.99,,,-99.99,,2013-05-02 15:12:00,
2013-05-02 09:22:00,40.0,16.0,30.63,West,263,13.0,-999.0,38,-99.99,,,-99.99,,2013-05-02 15:22:00,
2013-05-02 09:33:00,41.0,17.0,30.62,West,263,8.0,-999.0,37,-99.99,,,-99.99,,2013-05-02 15:33:00,
2013-05-02 09:43:00,41.0,14.0,30.63,WSW,258,8.0,-999.0,33,-99.99,,,-99.99,,2013-05-02 15:43:00,
2013-05-02 10:03:00,44.0,15.0,30.61,West,263,10.0,-999.0,31,-99.99,,,-99.99,,2013-05-02 16:03:00,
2013-05-02 10:13:00,45.0,15.0,30.61,WSW,249,12.0,-999.0,30,-99.99,,,-99.99,,2013-05-02 16:13:00,
2013-05-02 10:22:00,46.0,11.0,30.58,WNW,288,11.0,-999.0,24,-99.99,,,-99.99,,2013-05-02 16:22:00,
2013-05-02 10:32:00,47.0,12.0,30.61,WNW,288,10.0,-999.0,24,-99.99,,,-99.99,,2013-05-02 16:32:00,
2013-05-02 10:43:00,46.0,9.0,30.60,West,274,12.0,-999.0,22,-99.99,,,-99.99,,2013-05-02 16:43:00,
2013-05-02 10:52:00,47.0,8.0,30.59,WSW,241,5.0,-999.0,20,-99.99,,,-99.99,,2013-05-02 16:52:00,
2013-05-02 11:02:00,47.0,7.0,30.59,West,269,5.0,-999.0,19,-99.99,,,-99.99,,2013-05-02 17:02:00,
2013-05-02 11:12:00,47.0,6.0,30.59,West,278,17.0,-999.0,18,-99.99,,,-99.99,,2013-05-02 17:12:00,
2013-05-02 11:22:00,47.0,6.0,30.58,WSW,237,7.0,-999.0,18,-99.99,,,-99.99,,2013-05-02 17:22:00,
2013-05-02 11:32:00,48.0,8.0,30.58,SW,218,6.0,-999.0,19,-99.99,,,-99.99,,2013-05-02 17:32:00,
2013-05-02 11:42:00,48.0,7.0,30.57,SW,223,4.0,-999.0,18,-99.99,,,-99.99,,2013-05-02 17:42:00,
2013-05-02 11:52:00,48.0,8.0,30.58,NE,52,12.0,-999.0,19,-99.99,,,-99.99,,2013-05-02 17:52:00,
2013-05-02 12:01:00,49.0,9.0,30.56,WNW,293,17.0,-999.0,19,-99.99,,,-99.99,,2013-05-02 18:01:00,
2013-05-02 12:11:00,50.0,7.0,30.56,North,-999,4.0,-999.0,17,-99.99,,,-99.99,,2013-05-02 18:11:00,
2013-05-02 12:21:00,49.0,6.0,30.56,ESE,108,3.0,-999.0,17,-99.99,,,-99.99,,2013-05-02 18:21:00,
2013-05-02 12:32:00,49.0,7.0,30.54,East,92,11.0,-999.0,18,-99.99,,,-99.99,,2013-05-02 18:32:00,
2013-05-02 12:42:00,48.0,6.0,30.56,NNW,343,4.0,-999.0,18,-99.99,,,-99.99,,2013-05-02 18:42:00,
2013-05-02 12:52:00,50.0,5.0,30.55,North,0,0.0,-999.0,16,-99.99,,,-99.99,,2013-05-02 18:52:00,
2013-05-02 13:01:00,53.0,9.0,30.53,NW,313,10.0,-999.0,17,-99.99,,,-99.99,,2013-05-02 19:01:00,
2013-05-02 13:11:00,50.0,5.0,30.53,North,-999,7.0,-999.0,16,-99.99,,,-99.99,,2013-05-02 19:11:00,
2013-05-02 13:22:00,49.0,6.0,30.53,North,6,11.0,-999.0,17,-99.99,,,-99.99,,2013-05-02 19:22:00,
2013-05-02 13:32:00,51.0,5.0,30.52,WNW,294,3.0,-999.0,15,-99.99,,,-99.99,,2013-05-02 19:32:00,
2013-05-02 13:42:00,50.0,6.0,30.50,NW,311,1.0,-999.0,16,-99.99,,,-99.99,,2013-05-02 19:42:00,
2013-05-02 13:52:00,51.0,4.0,30.50,South,176,3.0,-999.0,14,-99.99,,,-99.99,,2013-05-02 19:52:00,
2013-05-02 14:02:00,50.0,4.0,30.51,West,267,3.0,-999.0,15,-99.99,,,-99.99,,2013-05-02 20:02:00,
2013-05-02 14:11:00,51.0,7.0,30.50,NNE,23,7.0,-999.0,16,-99.99,,,-99.99,,2013-05-02 20:11:00,
2013-05-02 14:22:00,53.0,6.0,30.50,WNW,293,11.0,-999.0,15,-99.99,,,-99.99,,2013-05-02 20:22:00,
2013-05-02 14:32:00,53.0,7.0,30.50,NW,316,12.0,-999.0,15,-99.99,,,-99.99,,2013-05-02 20:32:00,
2013-05-02 14:41:00,52.0,4.0,30.49,SE,130,5.0,-999.0,14,-99.99,,,-99.99,,2013-05-02 20:41:00,
2013-05-02 14:52:00,53.0,7.0,30.48,NW,310,9.0,-999.0,15,-99.99,,,-99.99,,2013-05-02 20:52:00,
2013-05-02 15:01:00,51.0,5.0,30.49,West,277,5.0,-999.0,15,-99.99,,,-99.99,,2013-05-02 21:01:00,
2013-05-02 15:11:00,50.0,6.0,30.47,West,270,10.0,-999.0,16,-99.99,,,-99.99,,2013-05-02 21:11:00,
2013-05-02 15:21:00,51.0,5.0,30.47,SSW,202,4.0,-999.0,15,-99.99,,,-99.99,,2013-05-02 21:21:00,
2013-05-02 15:33:00,51.0,5.0,30.45,NW,316,6.0,-999.0,15,-99.99,,,-99.99,,2013-05-02 21:33:00,
2013-05-02 15:42:00,50.0,4.0,30.46,ENE,58,3.0,-999.0,15,-99.99,,,-99.99,,2013-05-02 21:42:00,
2013-05-02 15:53:00,51.0,8.0,30.45,WNW,297,12.0,-999.0,17,-99.99,,,-99.99,,2013-05-02 21:53:00,
2013-05-02 16:03:00,51.0,8.0,30.45,West,276,12.0,-999.0,17,-99.99,,,-99.99,,2013-05-02 22:03:00,
2013-05-02 16:12:00,53.0,10.0,30.45,WNW,290,13.0,-999.0,17,-99.99,,,-99.99,,2013-05-02 22:12:00,
2013-05-02 16:22:00,54.0,9.0,30.43,West,280,11.0,-999.0,16,-99.99,,,-99.99,,2013-05-02 22:22:00,
2013-05-02 16:32:00,53.0,8.0,30.45,WSW,253,16.0,-999.0,16,-99.99,,,-99.99,,2013-05-02 22:32:00,
2013-05-02 16:42:00,52.0,6.0,30.45,WNW,286,8.0,-999.0,15,-99.99,,,-99.99,,2013-05-02 22:42:00,
2013-05-02 16:52:00,54.0,7.0,30.43,WNW,287,9.0,-999.0,15,-99.99,,,-99.99,,2013-05-02 22:52:00,
2013-05-02 17:02:00,53.0,8.0,30.43,West,279,12.0,-999.0,16,-99.99,,,-99.99,,2013-05-02 23:02:00,
2013-05-02 17:11:00,52.0,6.0,30.44,NW,316,13.0,-999.0,15,-99.99,,,-99.99,,2013-05-02 23:11:00,
2013-05-02 17:22:00,51.0,8.0,30.43,NW,312,12.0,-999.0,17,-99.99,,,-99.99,,2013-05-02 23:22:00,
2013-05-02 17:32:00,50.0,7.0,30.42,NW,313,11.0,-999.0,17,-99.99,,,-99.99,,2013-05-02 23:32:00,
2013-05-02 17:42:00,51.0,8.0,30.41,North,-999,7.0,-999.0,17,-99.99,,,-99.99,,2013-05-02 23:42:00,
2013-05-02 17:51:00,52.0,9.0,30.41,NW,313,12.0,-999.0,17,-99.99,,,-99.99,,2013-05-02 23:51:00,
2013-05-02 18:01:00,52.0,10.0,30.42,WNW,300,11.0,-999.0,18,-99.99,,,-99.99,,2013-05-03 00:01:00,
2013-05-02 18:11:00,52.0,9.0,30.40,NNW,341,9.0,-999.0,17,-99.99,,,-99.99,,2013-05-03 00:11:00,
2013-05-02 18:21:00,52.0,9.0,30.43,NW,319,9.0,-999.0,17,-99.99,,,-99.99,,2013-05-03 00:21:00,
2013-05-02 18:31:00,52.0,11.0,30.41,WNW,286,5.0,-999.0,19,-99.99,,,-99.99,,2013-05-03 00:31:00,
2013-05-02 18:42:00,52.0,11.0,30.41,WNW,286,5.0,-999.0,19,-99.99,,,-99.99,,2013-05-03 00:42:00,
2013-05-02 18:52:00,51.0,8.0,30.42,WNW,303,9.0,-999.0,17,-99.99,,,-99.99,,2013-05-03 00:52:00,
2013-05-02 19:01:00,50.0,12.0,30.40,NW,324,12.0,-999.0,21,-99.99,,,-99.99,,2013-05-03 01:01:00,
2013-05-02 19:11:00,50.0,12.0,30.40,NNW,334,10.0,-999.0,21,-99.99,,,-99.99,,2013-05-03 01:11:00,
2013-05-02 19:21:00,50.0,12.0,30.41,NNW,336,9.0,-999.0,22,-99.99,,,-99.99,,2013-05-03 01:21:00,
2013-05-02 19:31:00,49.0,14.0,30.42,NNW,343,8.0,-999.0,25,-99.99,,,-99.99,,2013-05-03 01:31:00,
2013-05-02 19:42:00,48.0,14.0,30.40,North,-999,8.0,-999.0,26,-99.99,,,-99.99,,2013-05-03 01:42:00,
2013-05-02 19:52:00,47.0,14.0,30.40,North,2,6.0,-999.0,26,-99.99,,,-99.99,,2013-05-03 01:52:00,
2013-05-02 20:01:00,48.0,14.0,30.39,East,88,7.0,-999.0,26,-99.99,,,-99.99,,2013-05-03 02:01:00,
2013-05-02 20:11:00,47.0,13.0,30.41,North,3,3.0,-999.0,25,-99.99,,,-99.99,,2013-05-03 02:11:00,
2013-05-02 20:21:00,47.0,12.0,30.40,WNW,297,2.0,-999.0,24,-99.99,,,-99.99,,2013-05-03 02:21:00,
2013-05-02 20:32:00,47.0,11.0,30.39,NNW,342,3.0,-999.0,23,-99.99,,,-99.99,,2013-05-03 02:32:00,
2013-05-02 20:42:00,47.0,10.0,30.41,North,0,0.0,-999.0,22,-99.99,,,-99.99,,2013-05-03 02:42:00,
2013-05-02 20:52:00,48.0,10.0,30.39,North,0,0.0,-999.0,21,-99.99,,,-99.99,,2013-05-03 02:52:00,
2013-05-02 21:01:00,47.0,9.0,30.39,North,0,0.0,-999.0,21,-99.99,,,-99.99,,2013-05-03 03:01:00,
2013-05-02 21:11:00,47.0,9.0,30.39,ESE,103,3.0,-999.0,21,-99.99,,,-99.99,,2013-05-03 03:11:00,
2013-05-02 21:21:00,47.0,9.0,30.37,ESE,104,3.0,-999.0,21,-99.99,,,-99.99,,2013-05-03 03:21:00,
2013-05-02 21:33:00,47.0,9.0,30.38,East,99,3.0,-999.0,21,-99.99,,,-99.99,,2013-05-03 03:33:00,
2013-05-02 21:42:00,47.0,8.0,30.40,ESE,114,3.0,-999.0,20,-99.99,,,-99.99,,2013-05-03 03:42:00,
2013-05-02 21:52:00,47.0,9.0,30.37,ESE,115,4.0,-999.0,21,-99.99,,,-99.99,,2013-05-03 03:52:00,
2013-05-02 22:03:00,47.0,8.0,30.39,ESE,114,4.0,-999.0,20,-99.99,,,-99.99,,2013-05-03 04:03:00,
2013-05-02 22:12:00,47.0,8.0,30.39,ESE,114,4.0,-999.0,20,-99.99,,,-99.99,,2013-05-03 04:12:00,
2013-05-02 22:23:00,46.0,9.0,30.38,ESE,114,5.0,-999.0,21,-99.99,,,-99.99,,2013-05-03 04:23:00,
2013-05-02 22:32:00,42.0,12.0,30.39,SE,129,11.0,-999.0,30,-99.99,,,-99.99,,2013-05-03 04:32:00,
2013-05-02 22:42:00,42.0,11.0,30.37,SE,124,9.0,-999.0,27,-99.99,,,-99.99,,2013-05-03 04:42:00,
2013-05-02 22:52:00,42.0,13.0,30.38,SE,133,12.0,-999.0,30,-99.99,,,-99.99,,2013-05-03 04:52:00,
2013-05-02 23:02:00,42.0,12.0,30.38,SE,126,11.0,-999.0,29,-99.99,,,-99.99,,2013-05-03 05:02:00,
2013-05-02 23:12:00,42.0,12.0,30.36,SE,127,12.0,-999.0,29,-99.99,,,-99.99,,2013-05-03 05:12:00,
2013-05-02 23:21:00,40.0,13.0,30.37,SE,140,11.0,-999.0,32,-99.99,,,-99.99,,2013-05-03 05:21:00,
2013-05-02 23:32:00,39.0,13.0,30.36,SE,139,11.0,-999.0,34,-99.99,,,-99.99,,2013-05-03 05:32:00,
2013-05-02 23:42:00,38.0,13.0,30.37,SE,146,9.0,-999.0,35,-99.99,,,-99.99,,2013-05-03 05:42:00,
2013-05-02 23:52:00,37.0,14.0,30.36,ESE,120,16.0,-999.0,38,-99.99,,,-99.99,,2013-05-03 05:52:00,